Home > Weather > George Town > Past weeks

Flag for Cayman Islands Past Weather in George Town, Cayman Islands — Yesterday and Last 2 Weeks

Now
81 °F

Warm.


Feels Like: 85 °F
Forecast: 82 / 86 °F
Wind: 6 mph from East

Location: Cayo Largo Del Sur

Current Time: May 24, 2016 at 5:10:50 AM

Latest Report: May 24, 2016 at 4:05 AM


Visibility: N/A

Pressure: 29.95 "Hg

Humidity: 79%

Dew Point: 73 °F

Location of George TownLocation

Past Weather in George Town — Graph

°F

George Town Temperature Yesterday

Maximum temperature yesterday: 88 °F (at 10:50 AM)
Minimum temperature yesterday: 81 °F (at 4:05 AM)
Average temperature yesterday: 84 °F

High & Low Weather Summary for the Past Weeks

 TemperatureHumidityPressure
High90 °F (May 21, 2:50 PM)89% (May 10, 7:57 AM)30.07 "Hg (May 10, 7:57 AM)
Low75 °F (May 10, 7:10 AM)43% (May 9, 3:51 PM)29.86 "Hg (May 22, 5:50 PM)
Average83 °F69%30.00 "Hg
* Reported May 9 4:05 AM — May 24 4:05 AM, George Town, Weather by CustomWeather, © 2016

Note: Actual official high and low records may vary slightly from our data, if they occured in-between our weather recording intervals... More about our weather records

Advertising

George Town Weather History for the Previous 24 Hours

Scroll right to see more
 ConditionsComfort  
Time TempWeatherWind HumidityBarometerVisibility
4:05 AM
Tue, May 24
81 °FWarm.6 mph79%29.95 "HgN/A
3:05 AM81 °FWarm.14 mph74%29.98 "HgN/A
2:05 AM82 °FWarm.2 mph74%29.98 "HgN/A
1:05 AM82 °FWarm.8 mph74%29.95 "HgN/A
12:05 AM82 °FWarm.6 mph74%30.01 "HgN/A
11:05 PM
Mon, May 23
82 °FWarm.7 mph74%29.98 "HgN/A
10:05 PM82 °FWarm.8 mph70%29.98 "HgN/A
9:05 PM84 °FWarm.7 mph66%29.98 "HgN/A
7:50 PM84 °FScattered clouds.7 mph66%29.98 "Hg6 mi
6:50 PM84 °FScattered clouds.6 mph66%29.95 "Hg6 mi
5:50 PM86 °FScattered clouds.6 mph59%29.92 "Hg6 mi
4:50 PM86 °FScattered clouds.6 mph62%29.92 "Hg6 mi
3:51 PM86 °FScattered showers. Scattered clouds.8 mph62%29.92 "Hg6 mi
2:50 PM88 °FScattered clouds.7 mph55%29.92 "Hg6 mi
1:50 PM88 °FScattered clouds.10 mph59%29.92 "Hg6 mi
12:50 PM88 °FPassing clouds.12 mph59%29.95 "Hg6 mi
11:50 AM88 °FPassing clouds.12 mph59%29.95 "Hg6 mi
10:50 AM88 °FPassing clouds.8 mph55%29.98 "Hg6 mi
9:50 AM84 °FPassing clouds.3 mph62%29.98 "Hg6 mi
8:50 AM86 °FPassing clouds.3 mph62%29.95 "Hg6 mi
7:50 AM86 °FPassing clouds.2 mph62%29.95 "Hg6 mi
6:51 AM84 °FPassing clouds.5 mph66%29.92 "Hg6 mi
5:50 AM81 °FPassing clouds.7 mph79%29.89 "Hg6 mi
5:05 AM81 °FWarm.6 mph79%29.89 "HgN/A
Weather by CustomWeather, © 2016

See weather overviewHow to use our weather pages